Location: Casteau
(50.5142°N, 4.0161°E)
Time: 20:07:36
(UTC+00:00)

Tiros 1 - Pass Details

Date: 08 August 2021
Orbit: 630 x 663 km, 48.4° (Epoch: 28 September)

Event Time Altitude Azimuth Distance (km) Brightness Sun altitude
Rises 14:17:04 0° 200° (SSW) 2,983 11.1 44.5°
Reaches altitude 10° 14:20:06 10° 181° (S) 2,074 10.3 44.1°
Maximum altitude 14:23:11 17° 141° (SE) 1,645 9.4 43.7°
Drops below altitude 10° 14:26:17 10° 100° (E) 2,076 9.5 43.3°
Sets 14:29:19 0° 81° (E) 2,987 10.2 42.9°
